Location: Caltech
(34.1382°N, 118.1253°W)
Time: 01:39:30
(UTC-07:00)

Cosmos 2333 Rocket - Visible Passes

Search period start: 25 April 2017 00:00
Search period end: 05 May 2017 00:00
Orbit: 837 x 864 km, 70.8° (Epoch: 23 April)

Date Brightness Start Highest point End Pass type
(mag) Time Alt. Az. Time Alt. Az. Time Alt. Az.
25 Apr 5.0 00:58:02 11° NW 00:58:02 11° NW 00:58:42 10° NW visible
25 Apr 3.9 23:03:17 27° NNE 23:03:17 27° NNE 23:05:46 10° NNE visible
26 Apr 4.9 00:45:13 11° NW 00:45:13 11° NW 00:46:24 10° NW visible
26 Apr 3.5 22:50:21 33° NNE 22:50:21 33° NNE 22:53:27 10° NNE visible
27 Apr 4.9 00:32:16 11° WNW 00:32:47 11° NW 00:34:06 10° NW visible
27 Apr 3.0 22:37:14 45° NNE 22:37:14 45° NNE 22:41:08 10° NNE visible
28 Apr 4.9 00:19:08 10° WNW 00:20:28 11° NW 00:21:47 10° NW visible
28 Apr 2.4 22:23:51 66° N 22:23:51 66° N 22:28:49 10° NNE visible
29 Apr 5.0 00:06:48 10° WNW 00:08:09 11° NW 00:09:29 10° NW visible
29 Apr 2.2 22:10:05 71° SW 22:10:41 83° WNW 22:16:30 10° NNE visible
29 Apr 5.0 23:54:29 10° WNW 23:55:50 11° NW 23:57:11 10° NW visible
30 Apr 4.0 20:14:28 10° ESE 20:14:59 10° E 20:15:30 10° E visible
30 Apr 2.2 21:55:34 32° SSW 21:58:23 83° WNW 22:04:11 10° NNE visible
30 Apr 5.1 23:42:08 10° WNW 23:43:31 11° NW 23:44:53 10° NW visible
01 May 4.0 20:02:10 10° ESE 20:02:39 10° E 20:03:09 10° E visible
01 May 2.2 21:40:19 10° SSW 21:46:04 83° WNW 21:51:52 10° NNE visible
01 May 5.1 23:29:49 10° WNW 23:31:11 11° NW 23:32:35 10° NW visible
02 May 2.2 21:28:00 10° SSW 21:33:45 83° WNW 21:39:33 10° NNE visible
02 May 5.2 23:17:29 10° WNW 23:18:52 11° NW 23:20:16 10° NW visible
03 May 2.3 21:15:41 10° SSW 21:21:26 83° WNW 21:27:14 10° NNE visible
03 May 5.2 23:05:09 10° WNW 23:06:33 11° NW 23:07:58 10° NW visible
04 May 2.3 21:03:22 10° SSW 21:09:07 83° WNW 21:14:55 10° NNE visible
04 May 5.3 22:52:49 10° WNW 22:54:14 11° NW 22:55:39 10° NW visible
